Location: Barcelona
(41.3830°N, 2.1830°E)
Time: 12:06:54
(UTC+01:00)

ISS - Pass Details

Date: 25 October 2020
Orbit: 417 x 420 km, 51.6° (Epoch: 29 October)

Event Time Altitude Azimuth Distance (km) Brightness Sun altitude
Exits shadow 05:52:29 34° 237° (WSW) 705 -3.1 -16.1°
Maximum altitude 05:53:48 86° 323° (NW) 422 -3.9 -15.8°
Drops below altitude 10° 05:57:10 10° 54° (NE) 1,496 -0.2 -15.2°
Sets 05:59:16 0° 55° (NE) 2,363 0.9 -14.8°
